sat.trackr.live / text

‹ back to catalog

STARLINK-35081

NORAD 66148 · 2025-240C

PAYLOAD ACTIVE UNKNOWN

§ Identity

Operator
Country
US
Launch date
2025-10-25
Launch site
AFWTR
Launch vehicle
Mass (kg)
RCS (m²)

Purposes: comms

External: N2YO · Heavens-Above · Gunter

§ Orbital elements

Epoch: 2026-05-25T01:51:28.820160Z

Period
93.85 min
Inclination
53.1590°
Eccentricity
0.0001403
Mean motion
15.34395483 rev/d
Perigee alt
461.8 km
Apogee alt
463.7 km
Semi-major
6,840.9 km
B*
3.1203e-4
RAAN
67.2944°
Arg perigee
105.1716°
Mean anomaly
254.9441°
Rev number
3,369

§ Raw data

STARLINK-350811 66148U 25240C   26145.07741690  .00010179  00000+0  31203-3 0  99992 66148  53.1590  67.2944 0001403 105.1716 254.9441 15.34395483 33696

JSON: /api/v1/satellites/66148 · /tle

For live sub-satellite position, see the globe view (requires WebGL).

§ Visibility from observer

Set your observer location to see the next 7 days of passes ≥ 10°. The values pass through the URL so the page stays shareable.

No JS? Fill the form by hand. The geolocation button needs JavaScript.